When you browse on this site, cookies collect data to enhance your experience and personalize the content and advertising you see.
Visit our Privacy Policy to learn more. By continuing to use the site, you agree to this use of cookies and data.
  • en France
  • Liste des pays
  • À 7 jours
  • Température de l'eau
  • Carte météo
  • Widgets météo
  • user-avatar
    Se connecter

    Météo par heure à Porto-Novo

    Ce jour, 9 Avril, Jeudi

    Heure Température Précipitation Vent Pression Humidité
    00:00 +30°C° 0 mm 3 m/s 756 mmHg 83%
    01:00 +29°C° 0.1 mm 3 m/s 756 mmHg 84%
    02:00 +29°C° 0.1 mm 3 m/s 755 mmHg 85%
    03:00 +29°C° 0.1 mm 3 m/s 755 mmHg 85%
    04:00 +29°C° 0.8 mm 3 m/s 755 mmHg 86%
    05:00 +29°C° 0.8 mm 3 m/s 755 mmHg 87%
    06:00 +28°C° 0.8 mm 3 m/s 756 mmHg 87%
    07:00 +30°C° 0 mm 3 m/s 756 mmHg 79%
    08:00 +33°C° 0 mm 4 m/s 756 mmHg 71%
    09:00 +34°C° 0 mm 5 m/s 757 mmHg 63%
    10:00 +35°C° 0 mm 5 m/s 756 mmHg 60%
    11:00 +36°C° 0 mm 5 m/s 756 mmHg 56%
    12:00 +37°C° 0 mm 5 m/s 755 mmHg 53%
    13:00 +36°C° 0 mm 5 m/s 755 mmHg 54%
    14:00 +36°C° 0 mm 5 m/s 754 mmHg 54%
    15:00 +36°C° 0 mm 5 m/s 753 mmHg 55%
    16:00 +34°C° 0.1 mm 5 m/s 754 mmHg 61%
    17:00 +33°C° 0.1 mm 5 m/s 754 mmHg 68%
    18:00 +32°C° 0.1 mm 5 m/s 754 mmHg 74%
    19:00 +30°C° 0 mm 5 m/s 755 mmHg 76%
    20:00 +30°C° 0 mm 4 m/s 756 mmHg 78%
    21:00 +30°C° 0 mm 4 m/s 756 mmHg 80%
    22:00 +30°C° 0 mm 4 m/s 756 mmHg 81%
    23:00 +30°C° 0 mm 4 m/s 756 mmHg 82%

    Demain, 10 Avril, Vendredi

    Heure Température Précipitation Vent Pression Humidité
    00:00 +30°C° 0 mm 3 m/s 756 mmHg 83%
    01:00 +29°C° 0 mm 3 m/s 756 mmHg 84%
    02:00 +29°C° 0 mm 3 m/s 755 mmHg 85%
    03:00 +29°C° 0 mm 2 m/s 755 mmHg 86%
    04:00 +28°C° 0.1 mm 2 m/s 755 mmHg 86%
    05:00 +28°C° 0.1 mm 2 m/s 756 mmHg 87%
    06:00 +28°C° 0.1 mm 2 m/s 757 mmHg 88%
    07:00 +30°C° 0.4 mm 2 m/s 757 mmHg 80%
    08:00 +31°C° 0.4 mm 2 m/s 758 mmHg 72%
    09:00 +34°C° 0.4 mm 3 m/s 758 mmHg 63%
    10:00 +35°C° 0 mm 2 m/s 758 mmHg 57%
    11:00 +37°C° 0 mm 2 m/s 757 mmHg 51%
    12:00 +37°C° 0 mm 1 m/s 757 mmHg 45%
    13:00 +37°C° 0.2 mm 2 m/s 756 mmHg 49%
    14:00 +36°C° 0.2 mm 4 m/s 755 mmHg 53%
    15:00 +35°C° 0.2 mm 5 m/s 754 mmHg 57%
    16:00 +34°C° 2.1 mm 4 m/s 755 mmHg 63%
    17:00 +32°C° 2.1 mm 4 m/s 755 mmHg 70%
    18:00 +30°C° 2.1 mm 4 m/s 756 mmHg 77%
    19:00 +29°C° 1.9 mm 4 m/s 756 mmHg 77%
    20:00 +28°C° 1.9 mm 3 m/s 757 mmHg 78%
    21:00 +27°C° 1.9 mm 3 m/s 757 mmHg 78%
    22:00 +27°C° 0.1 mm 3 m/s 757 mmHg 78%
    23:00 +27°C° 0.1 mm 2 m/s 757 mmHg 77%

    Après-demain, 11 Avril, Samedi

    Heure Température Précipitation Vent Pression Humidité
    00:00 +27°C° 0.1 mm 2 m/s 756 mmHg 77%
    01:00 +27°C° 0 mm 2 m/s 756 mmHg 79%
    02:00 +27°C° 0 mm 2 m/s 756 mmHg 81%
    03:00 +27°C° 0 mm 2 m/s 755 mmHg 82%
    04:00 +28°C° 0 mm 2 m/s 756 mmHg 83%
    05:00 +28°C° 0 mm 2 m/s 756 mmHg 84%
    06:00 +28°C° 0 mm 1 m/s 756 mmHg 85%
    07:00 +29°C° 0 mm 1 m/s 757 mmHg 81%
    08:00 +30°C° 0 mm 1 m/s 757 mmHg 77%
    09:00 +31°C° 0 mm 2 m/s 758 mmHg 73%
    10:00 +32°C° 0 mm 2 m/s 758 mmHg 66%
    11:00 +35°C° 0 mm 3 m/s 757 mmHg 59%
    12:00 +36°C° 0 mm 3 m/s 757 mmHg 53%
    13:00 +36°C° 0 mm 4 m/s 756 mmHg 54%
    14:00 +35°C° 0 mm 4 m/s 755 mmHg 56%
    15:00 +35°C° 0 mm 4 m/s 754 mmHg 58%
    16:00 +34°C° 0 mm 4 m/s 755 mmHg 63%
    17:00 +32°C° 0 mm 4 m/s 755 mmHg 69%
    18:00 +30°C° 0 mm 4 m/s 755 mmHg 74%
    19:00 +30°C° 0 mm 4 m/s 756 mmHg 77%
    20:00 +30°C° 0 mm 3 m/s 756 mmHg 79%
    21:00 +29°C° 0 mm 3 m/s 757 mmHg 81%
    22:00 +29°C° 0 mm 3 m/s 757 mmHg 82%
    23:00 +29°C° 0 mm 3 m/s 757 mmHg 82%

    12 Avril, Dimanche

    Heure Température Précipitation Vent Pression Humidité
    00:00 +29°C° 0 mm 3 m/s 757 mmHg 83%
    01:00 +29°C° 0 mm 3 m/s 756 mmHg 83%
    02:00 +29°C° 0 mm 3 m/s 756 mmHg 83%
    03:00 +29°C° 0 mm 3 m/s 756 mmHg 83%
    04:00 +29°C° 0 mm 2 m/s 756 mmHg 83%
    05:00 +29°C° 0 mm 2 m/s 756 mmHg 83%
    06:00 +29°C° 0 mm 2 m/s 756 mmHg 84%
    07:00 +30°C° 0 mm 2 m/s 757 mmHg 76%
    08:00 +32°C° 0 mm 2 m/s 757 mmHg 69%
    09:00 +34°C° 0 mm 3 m/s 758 mmHg 62%
    10:00 +35°C° 0 mm 3 m/s 757 mmHg 59%
    11:00 +36°C° 0 mm 4 m/s 757 mmHg 56%
    12:00 +37°C° 0 mm 4 m/s 756 mmHg 53%
    13:00 +36°C° 0 mm 4 m/s 756 mmHg 54%
    14:00 +36°C° 0 mm 5 m/s 755 mmHg 56%
    15:00 +35°C° 0 mm 5 m/s 754 mmHg 57%
    16:00 +34°C° 0 mm 5 m/s 755 mmHg 63%
    17:00 +33°C° 0 mm 4 m/s 755 mmHg 69%
    18:00 +32°C° 0 mm 4 m/s 755 mmHg 75%
    19:00 +30°C° 0 mm 4 m/s 756 mmHg 76%
    20:00 +30°C° 0 mm 4 m/s 756 mmHg 78%
    21:00 +30°C° 0 mm 4 m/s 757 mmHg 80%
    22:00 +30°C° 0 mm 4 m/s 756 mmHg 81%
    23:00 +29°C° 0 mm 4 m/s 756 mmHg 82%

    13 Avril, Lundi

    Heure Température Précipitation Vent Pression Humidité
    00:00 +29°C° 0 mm 4 m/s 755 mmHg 83%
    01:00 +29°C° 0 mm 4 m/s 755 mmHg 84%
    02:00 +29°C° 0 mm 4 m/s 755 mmHg 84%
    03:00 +29°C° 0 mm 4 m/s 754 mmHg 85%
    04:00 +29°C° 0 mm 3 m/s 755 mmHg 86%
    05:00 +29°C° 0 mm 3 m/s 755 mmHg 86%
    06:00 +29°C° 0 mm 2 m/s 756 mmHg 87%
    07:00 +30°C° 0 mm 3 m/s 756 mmHg 79%
    08:00 +33°C° 0 mm 3 m/s 757 mmHg 72%
    09:00 +34°C° 0 mm 3 m/s 757 mmHg 64%
    10:00 +35°C° 0 mm 4 m/s 757 mmHg 61%
    11:00 +35°C° 0 mm 4 m/s 756 mmHg 59%
    12:00 +36°C° 0 mm 4 m/s 756 mmHg 57%
    13:00 +36°C° 0.1 mm 4 m/s 755 mmHg 57%
    14:00 +36°C° 0.1 mm 4 m/s 755 mmHg 58%
    15:00 +35°C° 0.1 mm 4 m/s 754 mmHg 59%
    16:00 +34°C° 0.1 mm 4 m/s 754 mmHg 64%
    17:00 +33°C° 0.1 mm 4 m/s 754 mmHg 69%
    18:00 +31°C° 0.1 mm 3 m/s 754 mmHg 73%
    19:00 +31°C° 0.1 mm 3 m/s 755 mmHg 76%
    20:00 +30°C° 0.1 mm 3 m/s 756 mmHg 78%
    21:00 +30°C° 0.1 mm 3 m/s 756 mmHg 81%
    22:00 +30°C° 0 mm 3 m/s 756 mmHg 80%
    23:00 +30°C° 0 mm 4 m/s 756 mmHg 80%

    14 Avril, Mardi

    Heure Température Précipitation Vent Pression Humidité
    00:00 +30°C° 0 mm 4 m/s 756 mmHg 80%
    01:00 +30°C° 0 mm 4 m/s 755 mmHg 82%
    02:00 +29°C° 0 mm 4 m/s 755 mmHg 84%
    03:00 +29°C° 0 mm 3 m/s 755 mmHg 86%
    04:00 +29°C° 0 mm 3 m/s 755 mmHg 86%
    05:00 +29°C° 0 mm 3 m/s 755 mmHg 87%
    06:00 +29°C° 0 mm 3 m/s 755 mmHg 87%
    07:00 +30°C° 0 mm 3 m/s 756 mmHg 79%
    08:00 +33°C° 0 mm 3 m/s 757 mmHg 72%
    09:00 +34°C° 0 mm 4 m/s 757 mmHg 64%
    10:00 +35°C° 0 mm 4 m/s 757 mmHg 61%
    11:00 +36°C° 0 mm 4 m/s 757 mmHg 59%
    12:00 +36°C° 0 mm 4 m/s 756 mmHg 56%
    13:00 +36°C° 0 mm 4 m/s 756 mmHg 57%
    14:00 +36°C° 0 mm 4 m/s 755 mmHg 57%
    15:00 +35°C° 0 mm 4 m/s 754 mmHg 58%
    16:00 +34°C° 0 mm 4 m/s 754 mmHg 64%
    17:00 +33°C° 0 mm 4 m/s 755 mmHg 69%
    18:00 +32°C° 0 mm 4 m/s 755 mmHg 75%
    19:00 +30°C° 0 mm 4 m/s 755 mmHg 77%
    20:00 +30°C° 0 mm 4 m/s 756 mmHg 79%
    21:00 +30°C° 0 mm 4 m/s 756 mmHg 81%
    22:00 +30°C° 0 mm 4 m/s 756 mmHg 82%
    23:00 +30°C° 0 mm 4 m/s 756 mmHg 83%
    Voir plus